Weather History for KF44 - April, 2014

Change the Weather History Date:

Wednesday, April 23, 2014

  Actual Average (KTYR) Record (KTYR)
Temperature  
Mean Temperature 68 °F 67 °F  
Max Temperature 82 °F 77 °F 92 °F (1925)
Min Temperature 53 °F 57 °F 36 °F (1982)
Degree Days  
Heating Degree Days 0 2  
Month to date heating degree days 90  
Since 1 July heating degree days 2255  
Cooling Degree Days 2 3  
Month to date cooling degree days 50  
Year to date cooling degree days 83  
Growing Degree Days 18 (Base 50)    
Moisture  
Dew Point 59 °F    
Average Humidity 73    
Maximum Humidity 100    
Minimum Humidity 45    
Precipitation  
Precipitation 0.00 in 0.12 in 3.37 in (1966)
Month to date precipitation 2.28  
Year to date precipitation 13.27  
Snow  
Snow 0.00 in - - ()
Month to date snowfall  
Since 1 July snowfall  
Snow Depth -    
Sea Level Pressure  
Sea Level Pressure 29.88 in    
Wind  
Wind Speed 3 mph (SSE)    
Max Wind Speed 12 mph    
Max Gust Speed 18 mph    
Visibility 10 miles    
Events      
T = Trace of Precipitation, MM = Missing Value Source: NWS Daily Summary

Daily Weather History Graph

Daily Weather History Graph

Search for Another Location

Airport or City:

Trip Planner

Search our weather history database for the weather conditions in past years. The results will help you decide how hot, cold, wet, or windy it might be!

Date:

Astronomy

Apr. 23, 2014 Rise Set
Actual Time 6:45 AM CDT 7:58 PM CDT
Civil Twilight 6:19 AM CDT 8:24 PM CDT
Nautical Twilight 5:49 AM CDT 8:54 PM CDT
Astronomical Twilight 5:17 AM CDT 9:26 PM CDT
Moon 2:56 AM CDT (4/23) 2:28 PM CDT (4/23)
Length of Visible Light 14h 04m
Length of Day
13h 13m
Waning Crescent, 34% of the Moon is Illuminated
Apr 23
Waning Crescent
Apr 29
New
May 6
First Quarter
May 14
Full
May 21
Last Quarter

Hourly Weather History & Observations

Time (CDT) Temp. Heat Index Dew Point Humidity Pressure Visibility Wind Dir Wind Speed Gust Speed Precip Events Conditions
12:15 AM 59.0 °F - 59.0 °F 100% 29.95 in 10.0 mi Calm Calm - N/A   Clear
12:35 AM 59.0 °F - 57.2 °F 94% 29.95 in 7.0 mi Calm Calm - N/A   Clear
12:55 AM 57.2 °F - 57.2 °F 100% 29.95 in 7.0 mi Calm Calm - N/A   Clear
1:15 AM 57.2 °F - 55.4 °F 94% 29.95 in 10.0 mi Calm Calm - N/A   Clear
1:35 AM 57.2 °F - 55.4 °F 94% 29.94 in 10.0 mi Calm Calm - N/A   Clear
1:55 AM 59.0 °F - 55.4 °F 88% 29.94 in 10.0 mi Calm Calm - N/A   Clear
2:15 AM 55.4 °F - 55.4 °F 100% 29.94 in 10.0 mi Calm Calm - N/A   Clear
2:35 AM 55.4 °F - 55.4 °F 100% 29.94 in 7.0 mi Calm Calm - N/A   Clear
2:55 AM 55.4 °F - 53.6 °F 94% 29.93 in 10.0 mi Calm Calm - N/A   Clear
3:15 AM 55.4 °F - 53.6 °F 94% 29.93 in 10.0 mi Calm Calm - N/A   Clear
3:35 AM 55.4 °F - 53.6 °F 94% 29.93 in 10.0 mi Calm Calm - N/A   Clear
3:55 AM 55.4 °F - 53.6 °F 94% 29.93 in 10.0 mi Calm Calm - N/A   Clear
4:15 AM 53.6 °F - 53.6 °F 100% 29.92 in 10.0 mi Calm Calm - N/A   Clear
4:35 AM 53.6 °F - 53.6 °F 100% 29.93 in 7.0 mi Calm Calm - N/A   Clear
4:55 AM 53.6 °F - 53.6 °F 100% 29.93 in 10.0 mi Calm Calm - N/A   Clear
5:15 AM 53.6 °F - 53.6 °F 100% 29.93 in 10.0 mi Calm Calm - N/A   Clear
5:35 AM 53.6 °F - 53.6 °F 100% 29.93 in 10.0 mi Calm Calm - N/A   Clear
5:55 AM 53.6 °F - 53.6 °F 100% 29.93 in 10.0 mi Calm Calm - N/A   Clear
6:15 AM 53.6 °F - 53.6 °F 100% 29.94 in 5.0 mi Calm Calm - N/A   Clear
6:35 AM 53.6 °F - 51.8 °F 94% 29.94 in 10.0 mi Calm Calm - N/A   Clear
6:55 AM 53.6 °F - 51.8 °F 94% 29.94 in 10.0 mi Calm Calm - N/A   Clear
7:15 AM 53.6 °F - 51.8 °F 94% 29.94 in 10.0 mi Calm Calm - N/A   Clear
7:35 AM 55.4 °F - 53.6 °F 94% 29.95 in 10.0 mi Calm Calm - N/A   Clear
7:55 AM 57.2 °F - 55.4 °F 94% 29.95 in 10.0 mi Calm Calm - N/A   Clear
8:15 AM 60.8 °F - 59.0 °F 94% 29.95 in 10.0 mi Calm Calm - N/A   Clear
8:35 AM 62.6 °F - 59.0 °F 88% 29.95 in 10.0 mi Calm Calm - N/A   Clear
8:55 AM 64.4 °F - 60.8 °F 88% 29.94 in 10.0 mi SE 3.5 mph - N/A   Clear
9:15 AM 68.0 °F - 62.6 °F 83% 29.95 in 10.0 mi SSE 4.6 mph - N/A   Clear
9:35 AM 71.6 °F - 62.6 °F 73% 29.95 in 10.0 mi South 6.9 mph - N/A   Clear
9:55 AM 71.6 °F - 62.6 °F 73% 29.95 in 10.0 mi SSE 5.8 mph - N/A   Clear
10:15 AM 73.4 °F - 62.6 °F 69% 29.95 in 10.0 mi SSE 8.1 mph - N/A   Clear
10:35 AM 75.2 °F - 60.8 °F 61% 29.95 in 10.0 mi SSE 9.2 mph - N/A   Clear
10:55 AM 77.0 °F - 60.8 °F 57% 29.95 in 10.0 mi SE 10.4 mph - N/A   Clear
11:15 AM 77.0 °F - 60.8 °F 57% 29.94 in 10.0 mi SE 9.2 mph - N/A   Clear
11:35 AM 78.8 °F - 60.8 °F 54% 29.94 in 10.0 mi SSE 10.4 mph 17.3 mph N/A   Clear
11:55 AM 78.8 °F - 60.8 °F 54% 29.93 in 10.0 mi SSE 9.2 mph - N/A   Scattered Clouds
12:15 PM 78.8 °F - 60.8 °F 54% 29.93 in 10.0 mi SE 11.5 mph - N/A   Scattered Clouds
12:35 PM 78.8 °F - 60.8 °F 54% 29.92 in 10.0 mi South 5.8 mph 16.1 mph N/A   Scattered Clouds
1:15 PM 78.8 °F - 60.8 °F 54% 29.90 in 10.0 mi SSE 10.4 mph 17.3 mph N/A   Scattered Clouds
1:35 PM 78.8 °F - 59.0 °F 51% 29.89 in 10.0 mi SE 9.2 mph - N/A   Scattered Clouds
1:55 PM 80.6 °F 81.5 °F 60.8 °F 51% 29.89 in 10.0 mi SSE 10.4 mph 16.1 mph N/A   Mostly Cloudy
2:15 PM 80.6 °F 81.1 °F 59.0 °F 48% 29.88 in 10.0 mi South 11.5 mph - N/A   Scattered Clouds
2:35 PM 80.6 °F 81.5 °F 60.8 °F 51% 29.87 in 10.0 mi SSE 9.2 mph - N/A   Scattered Clouds
2:55 PM 80.6 °F 81.1 °F 59.0 °F 48% 29.86 in 10.0 mi South 10.4 mph - N/A   Scattered Clouds
3:15 PM 82.4 °F 82.5 °F 59.0 °F 45% 29.86 in 10.0 mi SSE 9.2 mph - N/A   Scattered Clouds
3:35 PM 82.4 °F 82.5 °F 59.0 °F 45% 29.84 in 10.0 mi South 10.4 mph 16.1 mph N/A   Scattered Clouds
3:55 PM 82.4 °F 82.9 °F 60.8 °F 48% 29.83 in 10.0 mi South 8.1 mph 18.4 mph N/A   Scattered Clouds
4:15 PM 82.4 °F 82.9 °F 60.8 °F 48% 29.82 in 10.0 mi South 6.9 mph - N/A   Scattered Clouds
4:35 PM 82.4 °F 82.5 °F 59.0 °F 45% 29.81 in 10.0 mi SSE 8.1 mph - N/A   Scattered Clouds
4:55 PM 82.4 °F 82.5 °F 59.0 °F 45% 29.81 in 10.0 mi SSE 10.4 mph 18.4 mph N/A   Scattered Clouds
5:15 PM 82.4 °F 82.9 °F 60.8 °F 48% 29.80 in 10.0 mi SSE 9.2 mph - N/A   Scattered Clouds
5:35 PM 80.6 °F 81.5 °F 60.8 °F 51% 29.79 in 10.0 mi SSE 11.5 mph - N/A   Clear
5:55 PM 80.6 °F 81.5 °F 60.8 °F 51% 29.79 in 10.0 mi SSE 10.4 mph - N/A   Clear
6:15 PM 80.6 °F 81.5 °F 60.8 °F 51% 29.79 in 10.0 mi South 6.9 mph - N/A   Clear
6:35 PM 80.6 °F 81.5 °F 60.8 °F 51% 29.78 in 10.0 mi SSE 9.2 mph - N/A   Clear
6:55 PM 78.8 °F - 60.8 °F 54% 29.78 in 10.0 mi SSE 6.9 mph - N/A   Clear
7:15 PM 78.8 °F - 60.8 °F 54% 29.77 in 10.0 mi SSE 5.8 mph - N/A   Clear
7:35 PM 77.0 °F - 60.8 °F 57% 29.78 in 10.0 mi SSE 6.9 mph - N/A   Clear
7:55 PM 77.0 °F - 60.8 °F 57% 29.78 in 10.0 mi SSE 6.9 mph - N/A   Mostly Cloudy
8:15 PM 77.0 °F - 62.6 °F 61% 29.78 in 10.0 mi SSE 6.9 mph - N/A   Scattered Clouds
8:35 PM 75.2 °F - 62.6 °F 65% 29.78 in 10.0 mi South 8.1 mph - N/A   Clear
8:55 PM 73.4 °F - 62.6 °F 69% 29.78 in 10.0 mi SSE 6.9 mph - N/A   Clear
9:15 PM 73.4 °F - 62.6 °F 69% 29.78 in 10.0 mi SSE 5.8 mph - N/A   Clear
9:35 PM 71.6 °F - 62.6 °F 73% 29.79 in 10.0 mi SSE 4.6 mph - N/A   Clear
9:55 PM 71.6 °F - 62.6 °F 73% 29.81 in 10.0 mi SSE 5.8 mph - N/A   Clear
10:15 PM 71.6 °F - 62.6 °F 73% 29.81 in 10.0 mi SSE 5.8 mph - N/A   Clear
10:35 PM 71.6 °F - 60.8 °F 69% 29.81 in 10.0 mi SSE 6.9 mph - N/A   Clear
10:55 PM 71.6 °F - 60.8 °F 69% 29.82 in 10.0 mi South 11.5 mph - N/A   Clear
11:15 PM 71.6 °F - 60.8 °F 69% 29.82 in 10.0 mi South 11.5 mph 17.3 mph N/A   Clear
11:35 PM 71.6 °F - 60.8 °F 69% 29.83 in 10.0 mi South 11.5 mph - N/A   Clear
11:55 PM 69.8 °F - 60.8 °F 73% 29.82 in 10.0 mi South 10.4 mph 16.1 mph N/A   Clear